Flag for Germany Weather past 2 weeks in Pirmasens, Rhineland-Palatinate, Germany

Now
30 °F

Clear.


Feels Like: 30 °F
Forecast: 35 / 52 °F
Wind: 2 mph from North

Location: Ramstein


UV Index: 3 (Moderate)

Visibility: N/A


Pressure: 30.34 "Hg

Humidity: 90%

Dew point: 27 °F

Location of PirmasensLocation

Historic Weather in Pirmasens

°F

Pirmasens temperature yesterday

Maximum temperature yesterday: 57 °F (at 4:58 PM)
Minimum temperature yesterday: 26 °F (at 6:58 AM)
Average temperature yesterday: 44 °F

Past Weeks' High & Low Weather Summary

 TemperatureHumidityPressure
High72 °F (Apr 2, 3:58 PM)100% (Apr 2, 3:58 AM)30.43 "Hg (Apr 2, 3:58 AM)
Low26 °F (Apr 16, 6:58 AM)31% (Apr 7, 5:58 PM)29.65 "Hg (Apr 3, 1:58 PM)
Average52 °F68%30.05 "Hg
* Reported Apr 2 2:58 AM — Apr 17 2:58 AM, Pirmasens, Weather by CustomWeather, © 2014

Note: Actual official high and low records may vary slightly from our data, if they occured in-between our weather recording intervals... More about our weather records

Advertising

Historic Weather Conditions — Data for Previous 24 hours

 ConditionsComfort  
Time TempWeatherWind HumidityBarometerVisibility
2:58 AM
Apr 17
30 °FClear.2 mph90%30.34 "HgN/A
1:58 AM29 °FClear.3 mph90%30.35 "HgN/A
12:58 AM31 °FClear.6 mph87%30.36 "HgN/A
11:58 PM
Apr 16
30 °FClear.1 mph90%30.37 "HgN/A
10:58 PM37 °FClear.No wind75%30.37 "HgN/A
9:58 PM37 °FClear.3 mph76%30.37 "HgN/A
8:58 PM44 °FSunny.2 mph58%30.37 "HgN/A
7:58 PM53 °FSunny.6 mph39%30.36 "HgN/A
6:58 PM55 °FSunny.7 mph36%30.37 "HgN/A
5:58 PM55 °FSunny.13 mph36%30.37 "HgN/A
4:58 PM57 °FSunny.14 mph36%30.37 "HgN/A
3:58 PM56 °FScattered clouds.10 mph40%30.38 "HgN/A
2:58 PM55 °FPassing clouds.10 mph41%30.40 "HgN/A
1:58 PM54 °FSunny.10 mph40%30.40 "HgN/A
12:58 PM53 °FCool.N/A41%30.40 "HgN/A
11:58 AM52 °FPassing clouds.14 mph47%30.40 "HgN/A
10:58 AM50 °FSunny.9 mph54%30.42 "HgN/A
9:58 AM46 °FSunny.7 mph57%30.43 "HgN/A
8:58 AM40 °FSunny.3 mph74%30.42 "HgN/A
7:58 AM32 °FSunny.1 mph94%30.42 "HgN/A
6:58 AM26 °FClear.3 mph93%30.41 "HgN/A
5:58 AM27 °FClear.1 mph95%30.40 "HgN/A
4:58 AM30 °FClear.No wind92%30.40 "HgN/A
Weather by CustomWeather, © 2014

See weather overview